* Astronomy

Members Login
Username 
 
Password 
    Remember Me  
Post Info TOPIC: DELTA 2 rocket body re-entry


L

Posts: 131433
Date:
RE: DELTA 2 rocket body re-entry
Permalink  
 


Update
The DELTA 2 rocket body re-entered the Earths atmosphere on the 16th December, 2010 @ 16:47 GMT 1 minute.

Inclination: 98.28
Revolution Number: 640
Predicted Location: 9 N, 25 E

__________________


L

Posts: 131433
Date:
Permalink  
 

Update
The DELTA 2 rocket body is predicted to re-enter the Earths atmosphere on the 16th December, 2010 @ 16:40 GMT 40 minutes.

Period: 88.57 minutes
Inclination: 98.28
Apogee: 252 km
Perigee: 155 km
Revolution Number: 640
Predicted Location: 53.6N, 37.8E

__________________


L

Posts: 131433
Date:
Permalink  
 

Update
The DELTA 2 rocket body is predicted to re-enter the Earths atmosphere on the 16th December, 2010 @ 20:18 GMT 24 hours.

Period: 89.25 minutes
Inclination: 98.28
Apogee: 310 km
Perigee: 164 km
Revolution Number: 641
Predicted Location: 65.2 S, 170.4 E

__________________


L

Posts: 131433
Date:
Permalink  
 

Update
The DELTA 2 rocket body is predicted to re-enter the Earths atmosphere on the 17th December, 2010 @ 00:01 GMT 48 hours.

TLE Data
DELTA 2 RB
1 37217U 10060B 10347.90720337 .02076336 28215-5 49695-3 0 1193
2 37217 098.2826 177.2438 0095961 135.4626 226.2295 16.18071476 5954

Period: 89.25 minutes
Inclination: 98.28
Apogee: 310 km
Perigee: 164 km
Revolution Number: 644
Predicted Location: 58.3 N, 289.9 E

__________________


L

Posts: 131433
Date:
Permalink  
 

Update
The DELTA 2 rocket body is predicted to re-enter the Earths atmosphere on the 17th December, 2010 @ 01:25 GMT 72 hours.

Period: 89.53 minutes
Inclination: 98.29
Apogee: 336 km
Perigee: 167 km
Revolution Number: 645
Predicted Location: 76.4 N, 291.9 E

__________________


L

Posts: 131433
Date:
Permalink  
 

Update
The DELTA 2 rocket body is predicted to re-enter the Earths atmosphere on the 16th December, 2010 @ 17:59 GMT 192 hours.

Period: 89.89 minutes
Inclination: 98.29
Apogee: 368 km
Perigee: 170 km
Revolution Number: 640
Predicted Location: 66.7 N, 26.3 E


__________________


L

Posts: 131433
Date:
Permalink  
 

Update
The DELTA 2 rocket body is predicted to re-enter the Earths atmosphere on the 16th December, 2010 @ 17:59 GMT 192 hours.

Period: 90.19 minutes
Inclination: 98.29
Apogee: 396 km
Perigee: 172 km
Revolution Number: 640
Predicted Location: 66.7 N, 26.3 E

__________________


L

Posts: 131433
Date:
Permalink  
 

Update
The DELTA 2 rocket body is predicted to re-enter the Earths atmosphere on the 16th December, 2010 @ 17:59 GMT 192 hours.

Period: 90.5 minutes
Inclination: 98.29
Apogee: 424 km
Perigee: 174 km
Revolution Number: 640
Predicted Location: 66.7 N, 26.3 E

__________________


L

Posts: 131433
Date:
Permalink  
 

Update
The DELTA 2 rocket body is predicted to re-enter the Earths atmosphere on the 16th December, 2010 @ 17:59 GMT 192 hours.

TLE Data
DELTA 2 RB
1 37217U 10060B 10337.08677476 .00966458 26890-5 60829-3 0 825
2 37217 098.2993 163.8374 0205338 179.8832 180.2682 15.86090890 4224

Period: 90.96 minutes
Inclination: 98.31
Apogee: 467 km
Perigee: 177 km
Size: 9.81 metres
Revolution Number: 640
Predicted Location: 66.7 N, 26.3 E

__________________


L

Posts: 131433
Date:
Permalink  
 

A DELTA 2 rocket body that was launched on the 6th November, 2010, from the Vandenberg Air Force Base, for the COSMO-SkyMed 4 satellite mission is predicted to re-enter the Earths atmosphere on the 9th December, 2010 @ --:-- GMT -- hours.

TLE Data
DELTA 2 RB
1 37217U 10060B 10330.18233638 .00712020 27076-5 56899-3 0 617
2 37217 098.3085 155.5185 0249108 204.8797 154.0298 15.74082634 3132

Period: 91.69 minutes
Inclination: 98.31
Apogee: 534 km
Perigee: 181 km
Size: 9.81 metres
Revolution Number: -
Predicted Location: -

__________________
Page 1 of 1  sorted by
 
Quick Reply

Please log in to post quick replies.



Create your own FREE Forum
Report Abuse
Powered by ActiveBoard